一网星座-0179星 (ONEWEB-0179 )

导读 | 豆包AI

ONEWEB-0179是英国OneWeb星座的低轨通信卫星,于2021年4月25日发射入轨,运行在距地约1200公里的极地轨道,单星质量约175-200kg,采用Ku波段提供通信服务,通过“渐进俯仰”技术降低与同步轨道卫星的干扰。它属于OneWeb全球宽带星座组成部分,主要为电信运营商提供骨干网络支撑,服务全球偏远地区互联网接入,兼具商业与潜在军事应用价值。

Basic Information
目录编号:
48212
目录名称:
ONEWEB-0179
国际标识:
2021-031C
轨道中心:
EARTH
卫星名称:
一网星座-0179星
卫星全名:
一网星座-0179星 (ONEWEB-0179 )
卫星状态:
在轨 (已飞行1784 天)
发射日期:
2021-04-25 UTC
国别 :
英国 (GB)
星等 :
--
Orbit Information
数据来源 国际轨道数据 AOE轨道数据
星历时间 2026-03-14T05:35:03+0800
12小时前
查看轨道信息
2026-03-12T11:00:00+0800
2天前
查看轨道信息
半长轴 7583.929km 7583.912km
偏心率 0.0001716 0.0001712
轨道倾角 87.898° 87.898°
近地点辐角 73.820° 84.100°
升交点赤经 308.708° 309.063°
平近点角 286.312° 164.267°
近地点 1204.49km 1204.476km
远地点 1207.094km 1207.074km
周期 109.547分钟 109.547分钟
每日圈数 13.145025 13.145069
Detailed Information
平衡模式:
三轴稳定
覆盖范围:
全球
运营商:
一网卫星公司
运营商所在国:
英国
制造商(研发单位):
一网卫星公司
制造商所在国:
英国
使用方式:
暂无
Satellite Introduction
OneWeb卫星网络由648颗重约125公斤的微型卫星组成,运行在1200公里的轨道上。 每颗卫星都能够提供至少每秒8千兆位的吞吐量,以使用其高吞吐量的Ku频段有效载荷为家庭和移动平台提供互联网接入。该卫星仍在工作。
2D Orbit Map
3D Orbit Map
Orbit Altitude Analysis Chart
Orbit Inclination Analysis Chart
Orbit Comprehensive Analysis Chart
View Comprehensive Chart